| time (UTC) | temp F | wind direction | speed MPH | gust MPH | rain 1hr in | rain 24hr in | rain mn in | humidity % | barometer mb |
| 20260903041513 | 55 | 224 | 9.0 | 21.0 | 0.00 | 0.04 | 0.04 | 66 | 1009.2 |
| 20260903040011 | 52 | 217 | 5.0 | 11.0 | 0.00 | 0.04 | 0.04 | 73 | 1009.2 |
| 20260903034509 | 52 | 241 | 3.0 | 6.0 | 0.00 | 0.04 | 0.04 | 74 | 1009.2 |
| 20260903033009 | 52 | 233 | 3.0 | 6.0 | 0.00 | 0.04 | 0.04 | 74 | 1009.1 |
| 20260903031507 | 52 | 227 | 3.0 | 6.0 | 0.00 | 0.04 | 0.04 | 75 | 1009.1 |
| 20260903030007 | 52 | 239 | 4.0 | 7.0 | 0.00 | 0.04 | 0.04 | 75 | 1008.4 |
| 20260903024505 | 53 | 247 | 1.0 | 5.0 | 0.00 | 0.04 | 0.04 | 74 | 1008.3 |
| 20260903023005 | 54 | 251 | 0.0 | 4.0 | 0.00 | 0.04 | 0.04 | 73 | 1008.8 |
| 20260903021509 | 56 | 252 | 3.0 | 14.0 | 0.00 | 0.04 | 0.04 | 70 | 1009.2 |
| 20260903020003 | 56 | 238 | 9.0 | 13.0 | 0.00 | 0.04 | 0.04 | 75 | 1008.9 |
| 20260903014605 | 57 | 266 | 10.0 | 15.0 | 0.00 | 0.04 | 0.04 | 76 | 1008.7 |
| 20260903013100 | 59 | 241 | 2.0 | 6.0 | 0.00 | 0.04 | 0.04 | 76 | 1008.8 |
| 20260903011604 | 60 | 184 | 1.0 | 3.0 | 0.01 | 0.04 | 0.04 | 71 | 1008.7 |
| 20260903010059 | 59 | 188 | 0.0 | 2.0 | 0.01 | 0.04 | 0.04 | 74 | 1008.3 |
| 20260903004555 | 59 | 50 | 0.0 | 2.0 | 0.01 | 0.04 | 0.04 | 77 | 1008.0 |
| 20260903003054 | 59 | 35 | 1.0 | 5.0 | 0.01 | 0.04 | 0.04 | 73 | 1007.7 |
| 20260903001554 | 59 | 20 | 1.0 | 3.0 | 0.02 | 0.03 | 0.03 | 70 | 1008.6 |
| 20260903000056 | 59 | 235 | 0.0 | 5.0 | 0.03 | 0.03 | 0.03 | 70 | 1009.5 |
| 20260902234522 | 59 | 247 | 4.0 | 13.0 | 0.03 | 0.03 | 0.03 | 73 | 1010.0 |
| 20260902233022 | 58 | 249 | 6.0 | 15.0 | 0.02 | 0.02 | 0.02 | 74 | 1009.5 |
| 20260902231518 | 59 | 201 | 15.0 | 28.0 | 0.01 | 0.01 | 0.01 | 72 | 1009.2 |
| 20260902230016 | 67 | 281 | 12.0 | 37.0 | 0.00 | 0.00 | 0.00 | 54 | 1008.1 |
| 20260902224516 | 80 | 169 | 6.0 | 10.0 | 0.00 | 0.00 | 0.00 | 23 | 1005.1 |
| 20260902223012 | 80 | 145 | 1.0 | 7.0 | 0.00 | 0.00 | 0.00 | 30 | 1004.5 |
| 20260902221507 | 81 | 155 | 3.0 | 7.0 | 0.00 | 0.00 | 0.00 | 29 | 1005.0 |
| 20260902220005 | 83 | 195 | 4.0 | 10.0 | 0.00 | 0.00 | 0.00 | 29 | 1005.2 |
| 20260902214503 | 84 | 171 | 4.0 | 9.0 | 0.00 | 0.00 | 0.00 | 29 | 1005.4 |
| 20260902213000 | 84 | 176 | 1.0 | 9.0 | 0.00 | 0.00 | 0.00 | 30 | 1005.5 |
| 20260902211608 | 84 | 247 | 3.0 | 13.0 | 0.00 | 0.00 | 0.00 | 30 | 1005.8 |
| 20260902210112 | 83 | 203 | 5.0 | 11.0 | 0.00 | 0.00 | 0.00 | 30 | 1006.1 |
| 20260902204545 | 82 | 151 | 3.0 | 8.0 | 0.00 | 0.00 | 0.00 | 31 | 1006.5 |
| 20260902203044 | 81 | 159 | 3.0 | 8.0 | 0.00 | 0.00 | 0.00 | 33 | 1006.8 |
| 20260902201537 | 79 | 158 | 5.0 | 10.0 | 0.00 | 0.00 | 0.00 | 34 | 1007.0 |
| 20260902200034 | 79 | 136 | 4.0 | 12.0 | 0.00 | 0.00 | 0.00 | 34 | 1007.1 |
| 20260902194534 | 78 | 155 | 5.0 | 11.0 | 0.00 | 0.00 | 0.00 | 35 | 1007.3 |
| 20260902193031 | 77 | 175 | 3.0 | 11.0 | 0.00 | 0.00 | 0.00 | 36 | 1007.5 |
| 20260902191628 | 78 | 217 | 3.0 | 12.0 | 0.00 | 0.00 | 0.00 | 36 | 1007.6 |
| 20260902190059 | 79 | 210 | 5.0 | 12.0 | 0.00 | 0.00 | 0.00 | 35 | 1007.9 |
| 20260902184554 | 79 | 210 | 4.0 | 11.0 | 0.00 | 0.00 | 0.00 | 36 | 1008.0 |
| 20260902183049 | 78 | 244 | 4.0 | 13.0 | 0.00 | 0.00 | 0.00 | 39 | 1008.2 |
| 20260902181554 | 77 | 177 | 4.0 | 10.0 | 0.00 | 0.00 | 0.00 | 40 | 1008.4 |
| 20260902180059 | 75 | 272 | 5.0 | 14.0 | 0.00 | 0.00 | 0.00 | 41 | 1008.6 |
| 20260902174540 | 76 | 233 | 6.0 | 14.0 | 0.00 | 0.00 | 0.00 | 41 | 1008.8 |
| 20260902173035 | 73 | 257 | 4.0 | 12.0 | 0.00 | 0.00 | 0.00 | 44 | 1009.0 |
| 20260902171533 | 73 | 247 | 5.0 | 14.0 | 0.00 | 0.00 | 0.00 | 43 | 1008.9 |
| 20260902170034 | 72 | 209 | 5.0 | 10.0 | 0.00 | 0.00 | 0.00 | 44 | 1008.8 |
| 20260902164532 | 72 | 211 | 3.0 | 8.0 | 0.00 | 0.00 | 0.00 | 43 | 1008.7 |
| 20260902163028 | 72 | 217 | 3.0 | 7.0 | 0.00 | 0.00 | 0.00 | 44 | 1008.7 |
| 20260902161526 | 72 | 236 | 3.0 | 9.0 | 0.00 | 0.00 | 0.00 | 43 | 1008.7 |
| 20260902160024 | 72 | 245 | 3.0 | 9.0 | 0.00 | 0.00 | 0.00 | 44 | 1008.9 |
| 20260902154523 | 71 | 172 | 3.0 | 8.0 | 0.00 | 0.00 | 0.00 | 45 | 1009.1 |
| 20260902153017 | 69 | 202 | 2.0 | 6.0 | 0.00 | 0.00 | 0.00 | 48 | 1009.2 |
| 20260902151517 | 65 | 233 | 0.0 | 3.0 | 0.00 | 0.00 | 0.00 | 53 | 1009.4 |
| 20260902150010 | 63 | 259 | 0.0 | 2.0 | 0.00 | 0.00 | 0.00 | 55 | 1009.6 |
| 20260902144517 | 62 | 247 | 0.0 | 1.0 | 0.00 | 0.00 | 0.00 | 54 | 1009.7 |
| 20260902143002 | 61 | 161 | 0.0 | 2.0 | 0.00 | 0.00 | 0.00 | 56 | 1009.8 |
| 20260902141502 | 61 | 226 | 1.0 | 3.0 | 0.00 | 0.00 | 0.00 | 54 | 1010.0 |
| 20260902140002 | 62 | 234 | 2.0 | 6.0 | 0.00 | 0.00 | 0.00 | 52 | 1009.9 |
| 20260902134559 | 62 | 242 | 1.0 | 3.0 | 0.00 | 0.00 | 0.00 | 54 | 1009.8 |
| 20260902133025 | 60 | 238 | 0.0 | 2.0 | 0.00 | 0.00 | 0.00 | 57 | 1009.5 |
| 20260902131520 | 57 | 297 | 0.0 | 1.0 | 0.00 | 0.00 | 0.00 | 62 | 1009.4 |
| 20260902130046 | 55 | 267 | 0.0 | 2.0 | 0.00 | 0.00 | 0.00 | 64 | 1009.5 |
| 20260902124543 | 53 | 275 | 0.0 | 4.0 | 0.00 | 0.00 | 0.00 | 66 | 1009.5 |
| 20260902123037 | 52 | 259 | 1.0 | 4.0 | 0.00 | 0.00 | 0.00 | 68 | 1009.3 |
| 20260902121536 | 52 | 333 | 0.0 | 4.0 | 0.00 | 0.00 | 0.00 | 68 | 1009.3 |
| 20260902120033 | 51 | 359 | 0.0 | 0.0 | 0.00 | 0.00 | 0.00 | 69 | 1009.8 |
| 20260902114535 | 51 | 304 | 0.0 | 0.0 | 0.00 | 0.00 | 0.00 | 70 | 1009.8 |
| 20260902113030 | 50 | 295 | 0.0 | 1.0 | 0.00 | 0.00 | 0.00 | 71 | 1010.0 |
| 20260902111530 | 50 | 304 | 0.0 | 2.0 | 0.00 | 0.00 | 0.00 | 71 | 1010.5 |
| 20260902110030 | 48 | 317 | 0.0 | 1.0 | 0.00 | 0.00 | 0.00 | 73 | 1010.4 |
| 20260902104538 | 47 | 268 | 1.0 | 3.0 | 0.00 | 0.00 | 0.00 | 74 | 1010.2 |
| 20260902103023 | 48 | 241 | 0.0 | 0.0 | 0.00 | 0.00 | 0.00 | 72 | 1010.0 |
| 20260902101531 | 48 | 241 | 0.0 | 1.0 | 0.00 | 0.00 | 0.00 | 72 | 1010.0 |
| 20260902100021 | 50 | 244 | 0.0 | 1.0 | 0.00 | 0.00 | 0.00 | 69 | 1010.0 |
| 20260902094519 | 51 | 249 | 0.0 | 1.0 | 0.00 | 0.00 | 0.00 | 67 | 1009.7 |
| 20260902093023 | 51 | 242 | 0.0 | 2.0 | 0.00 | 0.00 | 0.00 | 68 | 1009.9 |
| 20260902091514 | 50 | 291 | 0.0 | 1.0 | 0.00 | 0.00 | 0.00 | 70 | 1010.1 |
| 20260902090013 | 49 | 289 | 0.0 | 2.0 | 0.00 | 0.00 | 0.00 | 71 | 1010.4 |
| 20260902084511 | 49 | 276 | 0.0 | 1.0 | 0.00 | 0.00 | 0.00 | 71 | 1010.4 |
| 20260902083008 | 49 | 303 | 0.0 | 2.0 | 0.00 | 0.00 | 0.00 | 70 | 1010.6 |
| 20260902081508 | 49 | 236 | 0.0 | 1.0 | 0.00 | 0.00 | 0.00 | 70 | 1010.5 |
| 20260902080007 | 48 | 236 | 0.0 | 0.0 | 0.00 | 0.00 | 0.00 | 71 | 1010.5 |
| 20260902074505 | 49 | 236 | 1.0 | 2.0 | 0.00 | 0.00 | 0.00 | 69 | 1010.6 |
| 20260902073003 | 49 | 303 | 0.0 | 1.0 | 0.00 | 0.00 | 0.00 | 70 | 1010.4 |
| 20260902071559 | 50 | 303 | 0.0 | 1.0 | 0.00 | 0.00 | 0.00 | 69 | 1010.3 |
| 20260902070100 | 50 | 292 | 0.0 | 1.0 | 0.00 | 0.00 | 0.00 | 69 | 1010.6 |
| 20260902064609 | 50 | 233 | 0.0 | 1.0 | 0.00 | 0.00 | 0.00 | 68 | 1010.6 |
| 20260902063050 | 51 | 230 | 0.0 | 0.0 | 0.00 | 0.00 | 0.00 | 66 | 1010.6 |
| 20260902061555 | 52 | 230 | 0.0 | 0.0 | 0.00 | 0.00 | 0.00 | 65 | 1010.7 |
| 20260902060046 | 53 | 230 | 0.0 | 0.0 | 0.00 | 0.00 | 0.00 | 63 | 1010.8 |
| 20260902054546 | 53 | 229 | 0.0 | 0.0 | 0.00 | 0.00 | 0.00 | 63 | 1010.8 |
| 20260902053048 | 54 | 230 | 0.0 | 0.0 | 0.00 | 0.00 | 0.00 | 63 | 1011.0 |
| 20260902051546 | 50 | 229 | 0.0 | 0.0 | 0.00 | 0.00 | 0.00 | 67 | 1010.9 |
| 20260902050041 | 51 | 230 | 0.0 | 0.0 | 0.00 | 0.00 | 0.00 | 65 | 1010.9 |
| 20260902044540 | 52 | 230 | 0.0 | 0.0 | 0.00 | 0.00 | 0.00 | 63 | 1011.0 |
| 20260902043040 | 53 | 230 | 0.0 | 0.0 | 0.00 | 0.00 | 0.00 | 62 | 1011.0 |